Weather History for KBIE - February, 2015

Change the Weather History Date:

Thursday, February 26, 2015

  Actual Average Record
Temperature  
Mean Temperature 8 °F -  
Max Temperature 16 °F 48 °F 66 °F (1976)
Min Temperature 0 °F 25 °F 0 °F (2014)
Degree Days  
Heating Degree Days 56    
Moisture  
Dew Point 0 °F    
Average Humidity 67    
Maximum Humidity 82    
Minimum Humidity 49    
Precipitation  
Precipitation 0.00 in - - ()
Sea Level Pressure  
Sea Level Pressure 30.46 in    
Wind  
Wind Speed 18 mph (North)    
Max Wind Speed 25 mph    
Max Gust Speed 34 mph    
Visibility 10 miles    
Events Snow    
Averages and records for this station are not official NWS values.
T = Trace of Precipitation, MM = Missing Value Source: NWS Daily Summary

Daily Weather History Graph

Daily Weather History Graph

Search for Another Location

Airport or City:

Trip Planner

Search our weather history database for the weather conditions in past years. The results will help you decide how hot, cold, wet, or windy it might be!

Date:

Astronomy

Feb. 26, 2015 Rise Set
Actual Time 7:05 AM CST 6:15 PM CST
Civil Twilight 6:37 AM CST 6:42 PM CST
Nautical Twilight 6:06 AM CST 7:14 PM CST
Astronomical Twilight 5:35 AM CST 7:45 PM CST
Moon 12:16 PM CST (2/26) 2:02 AM CST (2/26)
Length of Visible Light 12h 04m
Length of Day
11h 09m
First Quarter, 61% of the Moon is Illuminated
Feb 26
First Quarter
Mar 5
Full
Mar 13
Last Quarter
Mar 20
New
Mar 27
First Quarter

Hourly Weather History & Observations

Time (CST) Temp. Windchill Dew Point Humidity Pressure Visibility Wind Dir Wind Speed Gust Speed Precip Events Conditions
12:15 AM 13.6 °F -5.9 °F 7.2 °F 75% 30.27 in 10.0 mi North 25.3 mph 32.2 mph N/A   Overcast
12:35 AM 12.2 °F -6.3 °F 4.8 °F 72% 30.28 in 10.0 mi North 20.7 mph 31.1 mph N/A   Mostly Cloudy
12:55 AM 11.8 °F -8.0 °F 5.9 °F 77% 30.28 in 7.0 mi North 24.2 mph 31.1 mph N/A Snow Light Snow
1:15 AM 10.8 °F -9.4 °F 3.7 °F 73% 30.30 in 10.0 mi North 24.2 mph 34.5 mph N/A   Scattered Clouds
1:35 AM 10.2 °F -7.4 °F 4.1 °F 76% 30.30 in 10.0 mi North 17.3 mph 26.5 mph N/A   Scattered Clouds
1:55 AM 10.0 °F -7.1 °F 4.1 °F 77% 30.30 in 10.0 mi North 16.1 mph 23.0 mph N/A   Mostly Cloudy
2:15 AM 10.2 °F -9.7 °F 5.0 °F 79% 30.31 in 7.0 mi North 23.0 mph 26.5 mph N/A   Overcast
2:35 AM 9.0 °F -11.0 °F 3.0 °F 77% 30.32 in 10.0 mi North 21.9 mph 27.6 mph N/A   Overcast
2:55 AM 8.2 °F -12.8 °F 1.6 °F 74% 30.34 in 10.0 mi North 24.2 mph 29.9 mph N/A   Overcast
3:15 AM 8.1 °F -11.2 °F 1.4 °F 74% 30.35 in 10.0 mi North 19.6 mph 25.3 mph N/A   Overcast
3:35 AM 7.7 °F -12.6 °F 0.7 °F 73% 30.36 in 10.0 mi North 21.9 mph 25.3 mph N/A   Overcast
3:55 AM 7.7 °F -12.6 °F 0.7 °F 73% 30.36 in 10.0 mi North 21.9 mph 26.5 mph N/A   Overcast
4:15 AM 7.2 °F -13.3 °F -0.4 °F 71% 30.37 in 10.0 mi North 21.9 mph - N/A   Overcast
4:35 AM 6.4 °F -14.3 °F -1.1 °F 71% 30.37 in 10.0 mi North 21.9 mph - N/A   Overcast
4:55 AM 5.7 °F -15.3 °F -2.2 °F 70% 30.37 in 10.0 mi North 21.9 mph 28.8 mph N/A   Scattered Clouds
5:15 AM 5.4 °F -13.1 °F -1.3 °F 74% 30.37 in 10.0 mi North 16.1 mph - N/A   Clear
5:35 AM 5.4 °F -15.3 °F -1.7 °F 73% 30.39 in 10.0 mi North 20.7 mph 26.5 mph N/A   Clear
5:55 AM 5.0 °F -14.7 °F -2.2 °F 72% 30.40 in 10.0 mi North 18.4 mph - N/A   Clear
6:15 AM 4.3 °F -16.7 °F -2.2 °F 75% 30.42 in 10.0 mi North 20.7 mph - N/A   Clear
6:35 AM 3.9 °F -18.5 °F -3.1 °F 73% 30.43 in 10.0 mi North 24.2 mph 27.6 mph N/A   Clear
6:55 AM 3.2 °F -18.6 °F -3.6 °F 73% 30.44 in 10.0 mi North 21.9 mph 25.3 mph N/A   Clear
7:15 AM 3.2 °F -15.3 °F -3.3 °F 74% 30.44 in 10.0 mi North 15.0 mph - N/A   Clear
7:35 AM 3.2 °F -15.3 °F -3.1 °F 75% 30.45 in 10.0 mi North 15.0 mph - N/A   Clear
7:55 AM 4.1 °F -14.7 °F -3.3 °F 71% 30.46 in 10.0 mi North 16.1 mph 25.3 mph N/A   Clear
8:15 AM 4.8 °F -16.4 °F -3.1 °F 70% 30.47 in 10.0 mi North 21.9 mph 25.3 mph N/A   Clear
8:35 AM 5.0 °F -16.7 °F -3.5 °F 68% 30.47 in 10.0 mi North 23.0 mph 27.6 mph N/A   Clear
8:55 AM 6.1 °F -13.8 °F -2.9 °F 67% 30.47 in 10.0 mi North 19.6 mph - N/A   Scattered Clouds
9:15 AM 6.8 °F -13.8 °F -2.4 °F 66% 30.48 in 10.0 mi North 21.9 mph - N/A   Scattered Clouds
9:35 AM 7.2 °F -10.8 °F -3.3 °F 62% 30.48 in 10.0 mi North 16.1 mph 24.2 mph N/A   Clear
9:55 AM 6.6 °F -13.1 °F -2.0 °F 68% 30.49 in 10.0 mi North 19.6 mph - N/A   Mostly Cloudy
10:15 AM 9.3 °F -10.0 °F -0.6 °F 64% 30.49 in 10.0 mi North 20.7 mph 25.3 mph N/A   Mostly Cloudy
10:35 AM 8.6 °F -10.5 °F -1.8 °F 63% 30.49 in 10.0 mi NNW 19.6 mph 23.0 mph N/A   Scattered Clouds
10:55 AM 9.5 °F -7.2 °F -2.0 °F 60% 30.49 in 10.0 mi North 15.0 mph 24.2 mph N/A   Scattered Clouds
11:15 AM 10.9 °F -6.5 °F -0.9 °F 59% 30.50 in 10.0 mi North 17.3 mph 24.2 mph N/A   Scattered Clouds
11:35 AM 11.5 °F -7.2 °F -0.2 °F 59% 30.49 in 10.0 mi North 20.7 mph 25.3 mph N/A   Scattered Clouds
11:55 AM 12.2 °F -4.8 °F 0.3 °F 59% 30.49 in 10.0 mi North 17.3 mph - N/A   Scattered Clouds
12:15 PM 12.9 °F -2.2 °F -0.0 °F 56% 30.49 in 10.0 mi North 13.8 mph 21.9 mph N/A   Scattered Clouds
12:35 PM 13.6 °F -1.9 °F 1.2 °F 58% 30.49 in 10.0 mi North 15.0 mph - N/A   Scattered Clouds
12:55 PM 13.8 °F -3.7 °F 1.6 °F 58% 30.49 in 10.0 mi North 19.6 mph 23.0 mph N/A   Scattered Clouds
1:15 PM 14.4 °F -1.5 °F 1.2 °F 56% 30.49 in 10.0 mi North 16.1 mph 24.2 mph N/A   Scattered Clouds
1:35 PM 15.3 °F -1.8 °F 1.8 °F 55% 30.48 in 10.0 mi North 19.6 mph 24.2 mph N/A   Scattered Clouds
1:55 PM 15.8 °F -0.2 °F 1.4 °F 53% 30.48 in 10.0 mi North 17.3 mph 24.2 mph N/A   Scattered Clouds
2:15 PM 16.0 °F 1.7 °F -0.0 °F 49% 30.48 in 10.0 mi North 13.8 mph 24.2 mph N/A   Scattered Clouds
2:35 PM 16.3 °F 2.7 °F 0.3 °F 49% 30.48 in 10.0 mi North 12.7 mph 23.0 mph N/A   Scattered Clouds
2:55 PM 16.2 °F 1.3 °F 1.0 °F 51% 30.48 in 10.0 mi North 15.0 mph 24.2 mph N/A   Scattered Clouds
3:15 PM 15.4 °F 1.6 °F 0.1 °F 51% 30.48 in 10.0 mi North 12.7 mph 21.9 mph N/A   Scattered Clouds
3:35 PM 16.2 °F 0.8 °F 0.1 °F 49% 30.49 in 10.0 mi NNE 16.1 mph 23.0 mph N/A   Scattered Clouds
3:55 PM 16.0 °F 1.1 °F 0.9 °F 51% 30.49 in 10.0 mi North 15.0 mph - N/A   Scattered Clouds
4:15 PM 15.8 °F 2.1 °F 0.1 °F 50% 30.48 in 10.0 mi North 12.7 mph 20.7 mph N/A   Clear
4:35 PM 15.6 °F 1.2 °F 0.3 °F 51% 30.49 in 10.0 mi North 13.8 mph - N/A   Clear
4:55 PM 14.9 °F 0.9 °F 0.3 °F 53% 30.49 in 10.0 mi North 12.7 mph - N/A   Scattered Clouds
5:15 PM 14.2 °F -1.2 °F 0.3 °F 54% 30.49 in 10.0 mi NNE 15.0 mph 20.7 mph N/A   Scattered Clouds
5:35 PM 13.1 °F -2.0 °F -0.6 °F 54% 30.49 in 10.0 mi North 13.8 mph 20.7 mph N/A   Scattered Clouds
5:55 PM 12.0 °F -2.0 °F -0.0 °F 59% 30.49 in 10.0 mi North 11.5 mph - N/A   Clear
6:15 PM 11.1 °F -2.4 °F -0.0 °F 61% 30.50 in 10.0 mi NNE 10.4 mph - N/A   Scattered Clouds
6:35 PM 10.6 °F -2.2 °F -0.0 °F 62% 30.51 in 10.0 mi North 9.2 mph - N/A   Scattered Clouds
6:55 PM 10.4 °F -0.4 °F 0.5 °F 64% 30.52 in 10.0 mi NNE 6.9 mph - N/A   Mostly Cloudy
7:15 PM 9.0 °F -0.9 °F -0.0 °F 67% 30.53 in 10.0 mi North 5.8 mph - N/A   Scattered Clouds
7:35 PM 7.3 °F -2.8 °F -0.4 °F 71% 30.54 in 10.0 mi North 5.8 mph - N/A   Scattered Clouds
7:55 PM 4.8 °F -5.8 °F -1.3 °F 76% 30.54 in 10.0 mi North 5.8 mph - N/A   Clear
8:15 PM 4.1 °F -9.2 °F -1.3 °F 78% 30.54 in 10.0 mi North 8.1 mph - N/A   Clear
8:35 PM 3.6 °F -5.7 °F -1.7 °F 79% 30.54 in 10.0 mi NNE 4.6 mph - N/A   Clear
8:55 PM 4.1 °F -5.1 °F -1.7 °F 77% 30.54 in 10.0 mi NNE 4.6 mph - N/A   Clear
9:15 PM 3.9 °F -5.3 °F -2.0 °F 76% 30.55 in 10.0 mi NE 4.6 mph - N/A   Clear
9:35 PM 3.9 °F -5.3 °F -1.7 °F 78% 30.56 in 10.0 mi NE 4.6 mph - N/A   Clear
9:55 PM 4.8 °F -2.3 °F -1.3 °F 76% 30.56 in 10.0 mi ENE 3.5 mph - N/A   Clear
10:15 PM 4.1 °F - -1.3 °F 78% 30.56 in 10.0 mi Calm Calm - N/A   Clear
10:35 PM 2.7 °F - -3.5 °F 76% 30.57 in 10.0 mi Calm Calm - N/A   Clear
10:55 PM 2.8 °F - -2.6 °F 78% 30.57 in 10.0 mi Calm Calm - N/A   Clear
11:15 PM 1.4 °F - -4.0 °F 78% 30.57 in 10.0 mi Calm Calm - N/A   Clear
11:35 PM 1.0 °F - -4.0 °F 79% 30.57 in 10.0 mi Calm Calm - N/A   Clear
11:55 PM 0.1 °F - -4.2 °F 82% 30.57 in 10.0 mi Calm Calm - N/A   Clear